QPF
0.03 0.02 0.02 0.01 0.00 0.00 0.01 0.04 0.07 0.02 0.06 0.19 0.28 0.10 0.00 0.00 0.00 0.00 0.00 0.00 0.00 0.00 0.00 0.00 0.00 0.00 0.00 0.00 0.00 0.00 0.00 0.00 0.00 0.00 0.00 0.00 0.00 0.00 0.00 0.00 0.00 0.00 0.00 0.00
0.01 0.01 0.02 0.02 0.02 0.00 0.00 0.11 0.14 0.06 0.16 0.16 0.10 0.02 0.00 0.00 0.00 0.00 0.00 0.00 0.00 0.00 0.00 0.00 0.00 0.00 0.00 0.00 0.00 0.00 0.00 0.00 0.00 0.00 0.00 0.00 0.00 0.00 0.00 0.00 0.00 0.00 0.00 0.00
0.00 0.00 0.01 0.05 0.06 0.03 0.00 0.08 0.20 0.16 0.17 0.16 0.12 0.08 0.05 0.03 0.03 0.03 0.04 0.02 0.01 0.00 0.00 0.00 0.00 0.00 0.00 0.00 0.00 0.00 0.00 0.00 0.00 0.00 0.00 0.00 0.00 0.00 0.00 0.00 0.01 0.00 0.00 0.00
0.00 0.00 0.01 0.04 0.07 0.05 0.01 0.03 0.11 0.16 0.17 0.16 0.19 0.15 0.13 0.09 0.09 0.11 0.10 0.11 0.10 0.09 0.08 0.07 0.08 0.07 0.04 0.02 0.01 0.01 0.05 0.05 0.00 0.00 0.00 0.00 0.00 0.00 0.00 0.00 0.00 0.01 0.00 0.00
0.00 0.00 0.01 0.02 0.04 0.06 0.08 0.02 0.02 0.07 0.13 0.13 0.15 0.20 0.19 0.15 0.12 0.13 0.14 0.18 0.19 0.21 0.20 0.16 0.17 0.17 0.18 0.14 0.08 0.06 0.09 0.10 0.03 0.01 0.00 0.00 0.00 0.00 0.00 0.00 0.00 0.00 0.00 0.00
0.02 0.02 0.00 0.00 0.01 0.04 0.10 0.05 0.01 0.04 0.05 0.05 0.09 0.11 0.09 0.09 0.11 0.10 0.07 0.07 0.11 0.11 0.09 0.10 0.12 0.13 0.09 0.08 0.06 0.05 0.06 0.07 0.06 0.03 0.00 0.00 0.01 0.00 0.00 0.00 0.00 0.00 0.00 0.00
0.05 0.05 0.04 0.01 0.00 0.02 0.07 0.09 0.08 0.08 0.04 0.01 0.02 0.01 0.03 0.06 0.08 0.11 0.04 0.03 0.04 0.02 0.02 0.04 0.06 0.07 0.07 0.04 0.02 0.02 0.05 0.04 0.07 0.06 0.04 0.06 0.00 0.00 0.00 0.00 0.00 0.00 0.00 0.00
0.03 0.04 0.04 0.05 0.02 0.02 0.06 0.06 0.13 0.14 0.08 0.01 0.00 0.00 0.01 0.01 0.01 0.04 0.05 0.03 0.04 0.06 0.11 0.14 0.11 0.05 0.06 0.04 0.01 0.00 0.02 0.07 0.13 0.12 0.07 0.03 0.00 0.00 0.00 0.00 0.00 0.00 0.00 0.00
0.05 0.06 0.06 0.04 0.04 0.03 0.07 0.07 0.11 0.14 0.11 0.02 0.00 0.00 0.00 0.01 0.01 0.01 0.01 0.00 0.00 0.04 0.12 0.16 0.13 0.06 0.02 0.00 0.00 0.00 0.00 0.04 0.11 0.14 0.10 0.05 0.00 0.00 0.00 0.00 0.00 0.00 0.00 0.00
0.07 0.07 0.08 0.10 0.09 0.09 0.09 0.05 0.08 0.17 0.15 0.03 0.00 0.01 0.01 0.00 0.01 0.02 0.01 0.01 0.01 0.04 0.13 0.17 0.11 0.07 0.01 0.01 0.00 0.00 0.00 0.01 0.07 0.07 0.06 0.04 0.00 0.00 0.00 0.00 0.00 0.00 0.00 0.00
0.08 0.08 0.08 0.07 0.07 0.10 0.15 0.12 0.04 0.11 0.14 0.04 0.00 0.00 0.00 0.00 0.01 0.01 0.02 0.05 0.06 0.07 0.11 0.11 0.06 0.08 0.04 0.02 0.00 0.00 0.00 0.00 0.01 0.03 0.07 0.04 0.00 0.00 0.00 0.00 0.00 0.00 0.00 0.00
0.05 0.04 0.04 0.08 0.10 0.06 0.10 0.09 0.04 0.03 0.03 0.01 0.00 0.00 0.00 0.00 0.00 0.02 0.02 0.03 0.02 0.07 0.12 0.10 0.10 0.10 0.08 0.05 0.05 0.00 0.00 0.00 0.00 0.00 0.00 0.00 0.00 0.00 0.00 0.00 0.00 0.00 0.00 0.00
0.05 0.09 0.09 0.06 0.07 0.07 0.05 0.03 0.01 0.02 0.02 0.00 0.00 0.00 0.00 0.00 0.00 0.01 0.06 0.02 0.01 0.02 0.03 0.10 0.16 0.19 0.13 0.10 0.06 0.02 0.01 0.00 0.00 0.01 0.00 0.00 0.00 0.00 0.00 0.00 0.00 0.00 0.00 0.00
0.02 0.03 0.08 0.11 0.07 0.07 0.07 0.03 0.02 0.02 0.01 0.01 0.00 0.00 0.00 0.00 0.00 0.00 0.00 0.00 0.02 0.03 0.03 0.09 0.12 0.10 0.05 0.05 0.03 0.02 0.01 0.00 0.01 0.01 0.00 0.00 0.00 0.00 0.00 0.00 0.00 0.00 0.00 0.00
0.04 0.04 0.03 0.04 0.03 0.06 0.05 0.03 0.03 0.02 0.01 0.00 0.00 0.00 0.00 0.00 0.00 0.00 0.00 0.00 0.01 0.02 0.06 0.09 0.08 0.03 0.05 0.06 0.05 0.03 0.00 0.00 0.00 0.01 0.00 0.00 0.00 0.00 0.00 0.00 0.00 0.00 0.00 0.00
0.01 0.07 0.06 0.06 0.07 0.07 0.05 0.02 0.01 0.01 0.02 0.01 0.00 0.00 0.00 0.00 0.00 0.00 0.00 0.00 0.01 0.08 0.12 0.08 0.05 0.02 0.04 0.10 0.08 0.01 0.00 0.00 0.00 0.00 0.00 0.00 0.00 0.00 0.00 0.00 0.00 0.00 0.00 0.00
0.01 0.03 0.07 0.07 0.07 0.06 0.03 0.00 0.00 0.00 0.02 0.06 0.07 0.01 0.00 0.00 0.00 0.00 0.00 0.00 0.03 0.09 0.11 0.08 0.03 0.06 0.15 0.23 0.12 0.00 0.00 0.00 0.00 0.00 0.00 0.00 0.00 0.00 0.00 0.00 0.00 0.00 0.00 0.00
0.01 0.01 0.05 0.07 0.08 0.06 0.05 0.02 0.01 0.00 0.01 0.01 0.03 0.02 0.00 0.00 0.00 0.00 0.00 0.01 0.03 0.06 0.05 0.03 0.00 0.01 0.04 0.07 0.00 0.00 0.00 0.00 0.00 0.00 0.00 0.00 0.00 0.00 0.00 0.00 0.00 0.00 0.00 0.00
0.02 0.04 0.07 0.11 0.08 0.03 0.00 0.01 0.05 0.03 0.02 0.02 0.03 0.04 0.03 0.00 0.00 0.00 0.00 0.01 0.02 0.02 0.02 0.00 0.01 0.01 0.01 0.00 0.00 0.00 0.00 0.00 0.00 0.00 0.00 0.00 0.00 0.00 0.00 0.00 0.00 0.00 0.00 0.00
0.06 0.10 0.10 0.05 0.01 0.00 0.00 0.04 0.06 0.08 0.07 0.02 0.01 0.00 0.01 0.00 0.00 0.00 0.00 0.01 0.03 0.05 0.01 0.02 0.03 0.01 0.00 0.00 0.00 0.00 0.00 0.00 0.00 0.00 0.00 0.00 0.00 0.00 0.00 0.00 0.00 0.00 0.00 0.00
0.16 0.20 0.10 0.07 0.09 0.07 0.14 0.16 0.10 0.06 0.04 0.02 0.00 0.00 0.00 0.00 0.00 0.00 0.00 0.00 0.01 0.01 0.00 0.01 0.00 0.00 0.00 0.00 0.00 0.00 0.00 0.00 0.00 0.00 0.00 0.00 0.00 0.00 0.00 0.00 0.00 0.00 0.00 0.00
0.08 0.04 0.04 0.10 0.09 0.08 0.08 0.07 0.03 0.01 0.00 0.00 0.00 0.00 0.00 0.00 0.00 0.00 0.02 0.02 0.02 0.01 0.00 0.00 0.00 0.00 0.00 0.00 0.00 0.00 0.00 0.00 0.00 0.00 0.00 0.00 0.00 0.00 0.00 0.00 0.00 0.00 0.00 0.00
0.01 0.02 0.04 0.04 0.04 0.02 0.01 0.00 0.00 0.00 0.00 0.00 0.00 0.00 0.00 0.01 0.01 0.04 0.04 0.03 0.02 0.00 0.00 0.00 0.00 0.00 0.00 0.00 0.00 0.00 0.00 0.00 0.00 0.00 0.00 0.00 0.00 0.00 0.00 0.00 0.00 0.00 0.00 0.00
0.04 0.01 0.01 0.01 0.01 0.00 0.00 0.00 0.00 0.00 0.00 0.00 0.00 0.01 0.03 0.02 0.04 0.07 0.05 0.03 0.01 0.01 0.00 0.00 0.00 0.00 0.00 0.00 0.00 0.00 0.00 0.00 0.00 0.00 0.00 0.00 0.00 0.00 0.00 0.00 0.00 0.00 0.00 0.00
0.00 0.00 0.00 0.00 0.00 0.00 0.00 0.00 0.00 0.00 0.02 0.03 0.03 0.04 0.04 0.03 0.05 0.03 0.02 0.02 0.01 0.00 0.00 0.00 0.00 0.00 0.00 0.00 0.00 0.00 0.00 0.00 0.00 0.00 0.00 0.00 0.00 0.00 0.00 0.00 0.00 0.00 0.00 0.00
0.01 0.01 0.00 0.00 0.00 0.00 0.00 0.01 0.02 0.02 0.04 0.04 0.04 0.03 0.03 0.03 0.03 0.03 0.01 0.01 0.00 0.00 0.00 0.00 0.00 0.00 0.00 0.00 0.00 0.00 0.00 0.00 0.00 0.00 0.00 0.00 0.00 0.00 0.00 0.00 0.00 0.00 0.00 0.00
0.00 0.00 0.00 0.00 0.00 0.01 0.01 0.02 0.02 0.02 0.03 0.03 0.02 0.02 0.01 0.01 0.01 0.01 0.00 0.00 0.00 0.00 0.00 0.00 0.00 0.00 0.00 0.00 0.00 0.00 0.00 0.00 0.00 0.00 0.00 0.00 0.00 0.00 0.00 0.00 0.00 0.00 0.00 0.00
MSLP
1020.87 1020.79 1020.63 1020.72 1021.02 1020.74 1020.09 1020.65 1020.19 1019.59 1019.28 1018.98 1017.66 1015.63 1015.33 1014.85 1013.77 1013.42 1012.98 1012.61 1011.93 1011.89 1012.06 1011.77 1011.86 1011.26 1011.38 1012.03 1013.10 1013.75 1014.06 1014.28 1014.61 1014.61 1014.56 1015.05 1014.98 1014.76 1014.83 1015.01 1014.58 1014.30 1013.27 1010.04
1020.43 1020.42 1020.64 1020.62 1020.72 1020.72 1020.45 1020.34 1020.38 1019.81 1019.59 1018.29 1016.89 1015.72 1015.20 1015.18 1014.80 1013.75 1013.43 1012.69 1012.31 1012.32 1011.70 1012.12 1011.47 1011.09 1011.54 1012.08 1012.94 1012.92 1013.88 1014.12 1014.40 1013.89 1015.39 1015.57 1014.87 1014.29 1014.08 1013.90 1014.18 1012.83 1013.17 1009.91
1019.85 1019.96 1020.29 1020.55 1020.50 1020.56 1020.73 1020.92 1020.69 1020.03 1019.59 1019.03 1018.52 1017.23 1016.18 1015.95 1015.86 1015.33 1014.75 1014.38 1013.66 1013.29 1012.34 1011.83 1011.29 1011.60 1012.64 1012.94 1013.10 1013.57 1013.51 1013.56 1012.86 1012.09 1012.57 1013.49 1014.39 1013.85 1013.90 1013.87 1013.28 1012.78 1011.02 1010.05
1019.42 1019.68 1020.04 1019.92 1020.45 1020.61 1020.89 1021.15 1020.51 1020.40 1019.80 1019.44 1019.20 1018.93 1018.13 1017.45 1017.14 1016.83 1016.33 1015.98 1015.61 1015.04 1014.23 1013.84 1013.19 1013.92 1014.44 1014.78 1014.89 1014.80 1015.25 1014.75 1014.10 1013.21 1013.39 1013.68 1014.15 1013.80 1013.76 1013.49 1013.29 1013.01 1011.32 1010.73
1018.82 1019.23 1019.74 1019.87 1019.91 1020.59 1020.81 1020.77 1020.62 1020.58 1020.34 1019.72 1019.39 1019.02 1018.54 1018.24 1018.06 1018.12 1017.80 1017.45 1017.10 1016.76 1016.53 1016.19 1016.08 1016.00 1015.92 1015.74 1015.90 1015.80 1016.03 1015.68 1015.26 1014.45 1014.20 1014.11 1013.76 1013.18 1013.16 1013.20 1013.32 1013.04 1012.64 1010.20
1018.35 1018.61 1018.98 1019.68 1019.56 1020.05 1020.24 1020.48 1020.32 1020.39 1019.94 1019.67 1019.43 1018.96 1018.58 1018.52 1018.55 1018.25 1017.96 1018.07 1017.96 1017.47 1017.36 1017.42 1017.53 1017.74 1017.49 1017.18 1016.90 1016.59 1016.71 1016.50 1016.11 1014.40 1014.23 1014.27 1012.81 1011.58 1011.16 1011.38 1011.88 1012.40 1011.52 1010.33
1017.75 1018.15 1018.38 1018.95 1019.16 1019.33 1019.83 1020.39 1020.28 1020.24 1019.57 1019.43 1018.78 1018.55 1018.66 1018.56 1018.92 1019.04 1018.50 1018.39 1018.11 1017.82 1017.51 1017.67 1017.82 1017.67 1017.49 1017.30 1016.99 1016.92 1016.59 1016.49 1016.33 1014.94 1015.11 1013.29 1010.52 1010.53 1010.45 1010.58 1010.75 1010.81 1010.46 1010.51
1017.19 1017.59 1017.80 1018.26 1018.43 1018.97 1019.55 1019.93 1020.36 1020.55 1019.72 1019.04 1018.35 1018.21 1017.98 1018.24 1018.29 1018.55 1018.28 1018.20 1018.07 1018.30 1018.12 1017.84 1017.59 1017.09 1016.85 1015.87 1016.00 1015.85 1016.02 1016.12 1015.74 1015.10 1013.79 1011.82 1010.90 1010.81 1010.85 1010.73 1010.36 1010.51 1010.29 1010.22
1016.43 1016.76 1017.04 1017.53 1017.84 1018.34 1018.86 1019.07 1019.74 1020.41 1020.13 1018.69 1018.58 1018.18 1018.30 1018.10 1018.09 1018.09 1017.70 1017.48 1017.54 1018.06 1018.07 1017.66 1016.43 1015.90 1015.26 1014.70 1014.73 1014.55 1014.85 1015.08 1015.00 1014.37 1012.97 1011.90 1010.47 1010.38 1010.93 1011.08 1010.04 1010.12 1009.98 1009.93
1015.73 1016.06 1016.47 1016.78 1017.19 1017.68 1018.03 1018.47 1019.03 1019.95 1019.98 1019.00 1018.69 1018.48 1018.48 1017.93 1017.65 1017.70 1017.24 1017.37 1017.63 1017.41 1017.09 1016.68 1016.07 1015.05 1014.34 1014.00 1013.71 1013.98 1014.23 1014.10 1013.42 1013.18 1012.13 1011.20 1010.49 1010.75 1011.28 1010.95 1009.82 1009.51 1009.65 1010.04
1015.33 1015.52 1015.87 1016.33 1016.82 1017.36 1017.69 1018.07 1018.60 1019.32 1019.70 1019.15 1018.62 1018.34 1017.96 1017.60 1017.73 1017.58 1017.48 1017.78 1017.49 1017.54 1016.86 1016.06 1015.44 1014.82 1013.91 1013.34 1012.49 1011.74 1012.26 1012.68 1012.56 1012.77 1011.63 1010.08 1009.96 1010.81 1010.60 1009.22 1009.58 1009.79 1010.07 1010.44
1015.05 1015.18 1015.64 1016.17 1016.43 1016.78 1017.39 1018.06 1018.33 1018.70 1019.35 1018.91 1018.42 1017.76 1017.27 1017.35 1017.22 1017.67 1017.77 1017.66 1017.47 1017.35 1016.36 1015.93 1015.56 1015.07 1013.98 1013.13 1012.13 1011.77 1011.48 1010.78 1010.71 1011.09 1010.12 1010.20 1010.14 1009.84 1009.97 1009.88 1009.94 1010.03 1010.23 1010.70
1014.65 1014.99 1015.44 1015.74 1016.26 1016.46 1016.76 1017.35 1017.91 1018.49 1018.71 1018.82 1018.24 1017.08 1016.84 1016.88 1017.06 1017.27 1017.92 1017.13 1017.29 1016.97 1016.46 1016.56 1016.05 1015.45 1014.15 1012.81 1012.05 1011.54 1011.39 1010.88 1010.33 1010.72 1009.97 1009.47 1009.55 1009.85 1009.97 1009.81 1009.93 1010.04 1010.59 1010.80
1014.40 1014.84 1015.36 1015.64 1015.80 1016.32 1016.40 1017.14 1017.36 1017.57 1018.38 1018.12 1016.59 1016.60 1016.25 1016.12 1016.55 1016.62 1016.57 1016.21 1016.56 1016.92 1016.41 1016.04 1015.38 1015.07 1014.72 1013.55 1012.70 1011.88 1011.06 1010.97 1010.58 1010.06 1009.34 1009.59 1009.40 1009.43 1009.32 1009.47 1009.99 1010.20 1010.61 1010.93
1014.04 1014.44 1014.97 1015.24 1015.58 1015.75 1016.20 1016.61 1016.86 1016.73 1017.15 1017.42 1016.43 1016.08 1015.47 1015.62 1016.12 1016.28 1016.02 1016.26 1016.57 1016.54 1016.19 1015.63 1015.07 1014.45 1014.18 1013.33 1012.79 1011.33 1010.36 1009.61 1009.79 1008.78 1008.43 1008.60 1008.50 1008.72 1009.04 1009.58 1009.88 1010.19 1010.63 1011.06
1013.66 1014.04 1014.42 1014.92 1015.28 1016.04 1016.70 1016.70 1016.36 1016.25 1016.80 1017.52 1016.83 1015.48 1015.54 1015.97 1015.98 1016.26 1016.09 1015.76 1016.11 1016.07 1015.31 1014.74 1014.42 1013.99 1014.10 1012.78 1011.32 1009.66 1008.93 1008.82 1008.40 1008.49 1008.46 1008.77 1008.63 1009.35 1009.67 1009.84 1009.98 1010.39 1010.63 1010.87
1013.45 1013.80 1014.13 1014.55 1015.18 1015.87 1016.35 1016.23 1015.81 1016.19 1016.96 1017.46 1016.72 1015.75 1016.08 1016.09 1016.07 1016.08 1016.14 1016.20 1015.79 1015.97 1015.11 1014.53 1013.99 1014.03 1014.12 1012.58 1011.46 1010.29 1010.10 1009.87 1009.23 1008.85 1009.35 1009.54 1009.79 1009.59 1010.04 1010.25 1010.54 1010.73 1010.98 1011.23
1013.06 1013.45 1013.87 1014.29 1014.97 1015.70 1015.98 1016.09 1016.02 1016.29 1017.09 1017.55 1016.92 1015.41 1015.78 1016.15 1015.91 1015.79 1015.74 1015.41 1015.40 1015.20 1014.64 1014.42 1014.11 1014.01 1013.82 1012.85 1011.44 1011.64 1011.53 1011.15 1010.77 1010.63 1010.62 1010.78 1010.70 1010.80 1010.90 1010.98 1011.14 1011.41 1011.66 1012.04
1012.65 1013.13 1013.61 1014.30 1014.98 1015.11 1015.32 1015.56 1015.99 1016.06 1016.54 1016.55 1015.88 1014.87 1014.75 1015.76 1015.55 1015.60 1015.54 1015.42 1014.94 1014.79 1014.19 1013.77 1014.15 1013.49 1013.33 1012.99 1013.40 1013.66 1013.79 1013.34 1012.78 1012.35 1012.20 1011.83 1011.61 1011.47 1011.58 1011.64 1011.77 1011.92 1012.25 1012.68
1012.42 1013.36 1014.02 1014.53 1014.96 1014.72 1015.11 1016.02 1016.21 1016.13 1015.83 1015.97 1015.00 1014.50 1014.57 1015.17 1014.87 1014.98 1015.29 1015.33 1014.83 1014.37 1013.99 1014.37 1013.88 1012.97 1013.21 1014.57 1015.16 1015.21 1015.18 1014.96 1014.41 1013.84 1013.36 1012.92 1012.37 1012.17 1012.43 1012.60 1012.52 1012.58 1013.02 1013.54
1012.29 1013.21 1014.12 1015.25 1015.16 1015.21 1015.33 1015.13 1015.24 1015.02 1014.88 1014.48 1013.67 1013.72 1013.90 1014.71 1014.60 1014.48 1014.79 1014.51 1014.57 1014.31 1014.35 1014.57 1013.96 1013.74 1014.68 1015.62 1016.01 1016.08 1015.90 1015.61 1015.16 1014.72 1014.38 1013.87 1013.43 1013.17 1013.33 1013.58 1013.63 1013.70 1014.04 1014.39
1012.12 1013.11 1014.30 1015.04 1015.33 1015.14 1015.18 1014.70 1014.88 1014.67 1013.79 1013.89 1014.02 1014.27 1014.27 1014.60 1014.75 1014.51 1014.73 1014.52 1014.77 1014.30 1014.80 1014.88 1014.28 1014.98 1015.89 1016.40 1016.68 1016.49 1016.27 1016.01 1015.62 1015.45 1015.18 1014.65 1014.23 1014.18 1014.32 1014.51 1014.76 1014.88 1015.08 1015.36
1012.57 1013.13 1014.41 1014.66 1015.41 1015.07 1014.70 1014.55 1014.43 1014.27 1014.02 1014.32 1014.59 1014.80 1014.66 1015.18 1015.11 1014.75 1014.67 1014.56 1014.72 1015.12 1015.08 1014.64 1015.07 1016.15 1016.69 1017.11 1017.12 1017.01 1016.94 1017.04 1016.49 1016.09 1015.88 1015.57 1015.61 1015.61 1015.63 1015.78 1015.80 1015.86 1015.93 1016.07
1013.09 1013.76 1014.69 1015.00 1015.18 1014.86 1014.31 1014.46 1014.51 1015.05 1014.95 1014.92 1014.84 1015.00 1015.02 1015.14 1015.16 1015.05 1014.87 1015.34 1015.46 1015.32 1015.29 1015.17 1016.22 1017.09 1017.55 1017.76 1017.87 1017.91 1017.89 1017.65 1017.26 1017.01 1016.81 1016.72 1016.78 1016.80 1016.78 1016.76 1016.74 1016.70 1016.66 1016.70
1014.64 1014.74 1015.04 1015.61 1015.97 1016.16 1016.21 1016.25 1016.05 1016.20 1016.03 1015.64 1015.64 1015.65 1015.64 1015.60 1015.62 1015.59 1015.76 1015.94 1015.61 1015.50 1015.53 1016.41 1017.19 1017.85 1018.21 1018.28 1018.31 1018.28 1018.21 1018.08 1017.89 1017.76 1017.64 1017.60 1017.62 1017.61 1017.46 1017.25 1017.19 1017.13 1017.14 1017.06
1016.35 1016.69 1016.70 1016.72 1016.66 1016.94 1017.05 1017.09 1017.17 1017.46 1016.88 1016.28 1015.99 1015.94 1015.94 1016.03 1016.14 1016.20 1015.98 1016.10 1015.97 1016.55 1017.12 1017.52 1017.90 1018.16 1018.45 1018.59 1018.62 1018.50 1018.46 1018.38 1018.19 1018.11 1018.07 1017.94 1017.85 1017.76 1017.51 1017.29 1017.15 1017.04 1016.98 1016.90
1017.81 1018.11 1018.08 1017.98 1017.99 1018.08 1018.30 1018.50 1018.63 1018.59 1017.78 1016.88 1016.87 1016.77 1016.76 1017.18 1016.88 1016.80 1017.00 1017.09 1017.51 1017.82 1018.02 1018.25 1018.47 1018.67 1018.76 1018.78 1018.64 1018.41 1018.22 1018.11 1018.04 1017.97 1017.91 1017.76 1017.64 1017.65 1017.47 1017.13 1016.66 1016.56 1016.39 1016.38
Thickness
5484 5491 5499 5504 5506 5515 5526 5523 5537 5538 5544 5548 5555 5581 5588 5597 5597 5604 5603 5608 5614 5616 5616 5608 5604 5611 5622 5619 5602 5588 5597 5596 5588 5588 5595 5591 5592 5589 5586 5571 5570 5563 5568 5595
5468 5474 5477 5485 5489 5495 5505 5508 5510 5521 5524 5546 5563 5578 5579 5570 5575 5588 5590 5598 5605 5611 5608 5590 5605 5612 5620 5607 5595 5597 5587 5581 5572 5581 5565 5563 5566 5577 5577 5577 5568 5568 5543 5588
5450 5457 5460 5463 5469 5475 5481 5484 5492 5499 5506 5511 5516 5537 5552 5556 5548 5555 5557 5559 5574 5580 5588 5600 5600 5601 5582 5585 5588 5579 5581 5583 5586 5592 5592 5573 5555 5561 5560 5552 5546 5552 5561 5575
5432 5437 5440 5446 5447 5451 5457 5458 5473 5475 5488 5491 5489 5494 5500 5516 5527 5520 5528 5531 5535 5539 5553 5557 5571 5558 5552 5553 5554 5553 5543 5537 5551 5566 5561 5551 5542 5547 5545 5536 5538 5526 5556 5547
5417 5420 5420 5424 5430 5428 5432 5442 5452 5453 5459 5465 5473 5474 5484 5495 5498 5495 5501 5503 5499 5498 5510 5513 5519 5515 5517 5522 5520 5522 5511 5517 5512 5519 5527 5525 5524 5534 5530 5522 5513 5505 5512 5533
5398 5402 5406 5405 5412 5411 5414 5419 5427 5430 5446 5451 5458 5466 5471 5475 5476 5480 5485 5487 5483 5487 5491 5491 5488 5483 5485 5490 5496 5497 5492 5493 5494 5513 5518 5502 5497 5529 5533 5525 5512 5505 5506 5523
5385 5384 5388 5389 5394 5398 5398 5398 5402 5408 5429 5433 5446 5445 5449 5450 5451 5450 5461 5467 5472 5477 5482 5478 5472 5471 5473 5475 5483 5486 5481 5482 5479 5488 5475 5474 5532 5530 5525 5514 5511 5509 5509 5505
5377 5377 5377 5377 5378 5379 5383 5384 5383 5380 5399 5415 5425 5430 5437 5438 5440 5434 5438 5447 5450 5448 5447 5452 5457 5465 5463 5473 5474 5483 5476 5469 5471 5467 5476 5501 5509 5507 5503 5491 5496 5500 5494 5495
5370 5370 5370 5367 5369 5368 5368 5372 5370 5363 5372 5392 5395 5401 5409 5411 5414 5417 5423 5432 5435 5430 5425 5433 5447 5454 5470 5471 5469 5478 5471 5459 5453 5454 5452 5454 5498 5497 5479 5471 5464 5492 5486 5481
5362 5363 5362 5361 5361 5361 5360 5361 5360 5353 5355 5367 5374 5379 5379 5393 5400 5401 5410 5414 5410 5414 5416 5424 5433 5444 5450 5439 5456 5446 5442 5440 5445 5446 5444 5441 5481 5471 5460 5445 5474 5476 5474 5471
5351 5353 5353 5352 5353 5353 5353 5350 5349 5344 5340 5351 5362 5361 5369 5375 5375 5375 5386 5386 5389 5390 5402 5412 5424 5422 5427 5429 5454 5463 5448 5431 5434 5422 5429 5441 5467 5444 5447 5472 5454 5459 5453 5454
5338 5341 5343 5343 5345 5346 5343 5339 5338 5334 5334 5345 5350 5357 5363 5360 5361 5359 5356 5363 5372 5376 5386 5397 5396 5405 5407 5412 5421 5445 5423 5447 5445 5439 5444 5439 5439 5447 5445 5449 5445 5443 5443 5440
5328 5330 5331 5335 5336 5338 5336 5334 5331 5327 5327 5331 5337 5351 5350 5349 5348 5346 5338 5350 5359 5359 5368 5368 5372 5381 5388 5405 5411 5419 5418 5428 5429 5413 5433 5438 5436 5429 5429 5434 5434 5435 5428 5429
5320 5322 5325 5329 5329 5328 5328 5326 5324 5322 5317 5319 5347 5342 5344 5345 5341 5338 5341 5352 5348 5346 5353 5356 5364 5366 5374 5388 5388 5390 5407 5400 5402 5407 5429 5419 5422 5423 5428 5429 5425 5423 5418 5415
5314 5317 5319 5322 5321 5321 5318 5318 5317 5317 5316 5317 5332 5335 5344 5337 5332 5330 5332 5333 5334 5334 5338 5344 5354 5364 5363 5368 5368 5382 5408 5411 5397 5410 5425 5417 5433 5426 5422 5414 5413 5410 5405 5399
5309 5312 5314 5315 5314 5310 5306 5306 5313 5312 5307 5296 5310 5328 5325 5320 5320 5317 5320 5323 5321 5324 5333 5341 5345 5353 5350 5361 5371 5405 5416 5413 5414 5409 5417 5411 5415 5401 5398 5398 5399 5397 5394 5392
5303 5306 5308 5309 5307 5304 5301 5306 5311 5305 5295 5288 5296 5309 5308 5305 5304 5306 5309 5308 5311 5311 5324 5332 5337 5345 5337 5349 5359 5384 5383 5383 5393 5393 5385 5389 5385 5394 5386 5383 5380 5380 5378 5376
5298 5299 5301 5300 5298 5294 5294 5297 5297 5295 5286 5277 5285 5308 5299 5291 5300 5303 5301 5304 5303 5310 5320 5321 5324 5325 5326 5337 5368 5360 5354 5356 5360 5361 5363 5362 5363 5362 5363 5363 5364 5361 5359 5357
5297 5295 5294 5292 5288 5291 5295 5292 5289 5288 5284 5283 5292 5303 5310 5284 5294 5293 5293 5294 5305 5304 5314 5320 5315 5325 5328 5337 5323 5322 5319 5322 5328 5333 5336 5340 5345 5349 5347 5348 5348 5349 5345 5342
5297 5291 5288 5286 5287 5290 5290 5282 5281 5279 5280 5278 5291 5302 5299 5287 5294 5296 5294 5289 5298 5302 5310 5295 5301 5322 5319 5293 5289 5292 5292 5296 5303 5310 5318 5322 5329 5331 5330 5329 5330 5332 5327 5323
5296 5290 5291 5282 5284 5283 5283 5289 5286 5285 5286 5290 5302 5301 5296 5281 5286 5293 5290 5296 5294 5295 5298 5293 5305 5313 5292 5274 5271 5272 5275 5279 5285 5295 5297 5304 5312 5314 5310 5308 5308 5309 5307 5305
5301 5294 5284 5280 5281 5283 5284 5287 5278 5282 5297 5289 5285 5282 5280 5274 5277 5285 5282 5285 5279 5289 5272 5275 5294 5280 5267 5263 5258 5263 5264 5267 5275 5276 5278 5286 5291 5292 5290 5290 5288 5288 5287 5285
5299 5295 5286 5287 5274 5288 5289 5282 5286 5289 5286 5277 5273 5273 5273 5265 5270 5276 5277 5277 5278 5261 5264 5278 5274 5255 5254 5248 5249 5252 5252 5251 5257 5260 5263 5265 5265 5266 5265 5265 5268 5268 5268 5268
5300 5297 5289 5289 5287 5288 5297 5293 5286 5269 5270 5269 5271 5269 5269 5265 5265 5266 5268 5255 5254 5258 5257 5266 5247 5237 5235 5237 5238 5238 5238 5238 5242 5243 5246 5247 5245 5245 5246 5247 5247 5248 5250 5250
5282 5285 5295 5269 5260 5255 5253 5253 5259 5254 5254 5260 5258 5256 5257 5255 5252 5252 5246 5241 5250 5257 5262 5242 5233 5225 5223 5224 5225 5225 5225 5224 5224 5227 5228 5228 5227 5226 5228 5231 5230 5230 5230 5232
5261 5255 5258 5254 5256 5250 5247 5246 5244 5233 5239 5245 5248 5249 5248 5248 5241 5239 5244 5246 5248 5235 5223 5220 5217 5216 5213 5212 5211 5211 5210 5209 5210 5209 5210 5211 5210 5211 5214 5215 5214 5214 5216 5217
5244 5238 5236 5234 5233 5231 5226 5222 5217 5213 5224 5243 5234 5239 5238 5213 5225 5226 5220 5226 5214 5208 5205 5202 5199 5196 5195 5194 5195 5197 5198 5198 5197 5195 5195 5196 5196 5194 5193 5195 5200 5201 5204 5204